Kosmos-2419

operational
NORAD ID: 28916 Int'l Des: 2005-050 Owner: KVR/IACG Country: RU Constellation: GLONASS
MEOCIRCULAR

Kosmos-2419について

説明を読み込み中...

リアルタイム位置

3D地球を読み込み中...

次回通過

高度履歴

Altitude vs Time

uPlot chart will show altitude changes over time

軌道要素

1 28916U 05050B 25306.51510248 -.00000007 00000-0 00000+0 0 9995
2 28916 65.7187 323.9025 0013929 277.1356 77.1994 2.13106277154423
Epoch: Nov 2, 2025 • Age: 54 hours

現在のステータス

高度 19116.9 km
速度 3.96 km/s
衛星直下点 -59.06°S, 49.02°W
打ち上げ日 Dec 25, 2005
運用期間 19.8 years
タイプ other

技術仕様

分類 Payload
質量 1450.00 kg
乾燥質量 1200.00 kg
総質量 1450.00 kg
長さ 4.00 m
直径 1.50 m
スパン 7.80 m
形状 Cyl + Ant + 2 Pan
製造者 NPOPMR
バスタイプ Uragan
フェーズステータス In Orbit
所有者/国 KVR/IACG/RU

大規模コンステレーション

Loading constellations...